TimeEDT,TemperatureF,Dew PointF,Humidity,Sea Level PressureIn,VisibilityMPH,Wind Direction,Wind SpeedMPH,Gust SpeedMPH,PrecipitationIn,Events,Conditions,WindDirDegrees,DateUTC
12:53 AM,60.1,55.0,83,30.13,10.0,Calm,Calm,-,N/A,,Clear,0,2013-10-09 04:53:00
1:53 AM,60.1,55.0,83,30.14,10.0,Calm,Calm,-,N/A,,Clear,0,2013-10-09 05:53:00
2:53 AM,59.0,55.0,87,30.14,10.0,Calm,Calm,-,N/A,,Mostly Cloudy,0,2013-10-09 06:53:00
3:53 AM,57.0,54.0,89,30.15,10.0,Calm,Calm,-,N/A,,Clear,0,2013-10-09 07:53:00
4:53 AM,57.9,55.0,90,30.14,10.0,Calm,Calm,-,N/A,,Overcast,0,2013-10-09 08:53:00
5:53 AM,59.0,55.9,90,30.16,10.0,Calm,Calm,-,N/A,,Mostly Cloudy,0,2013-10-09 09:53:00
6:53 AM,57.9,55.0,90,30.17,10.0,Calm,Calm,-,N/A,,Mostly Cloudy,0,2013-10-09 10:53:00
7:53 AM,57.9,55.0,90,30.17,10.0,Calm,Calm,-,N/A,,Mostly Cloudy,0,2013-10-09 11:53:00
8:53 AM,61.0,55.9,83,30.19,10.0,ENE,3.5,-,N/A,,Mostly Cloudy,70,2013-10-09 12:53:00
9:53 AM,63.0,53.1,70,30.21,10.0,SW,3.5,-,N/A,,Scattered Clouds,230,2013-10-09 13:53:00
10:53 AM,66.0,54.0,65,30.20,10.0,Calm,Calm,-,N/A,,Scattered Clouds,0,2013-10-09 14:53:00
11:53 AM,70.0,54.0,57,30.20,10.0,Calm,Calm,-,N/A,,Scattered Clouds,0,2013-10-09 15:53:00
12:53 PM,73.0,55.9,55,30.19,10.0,Calm,Calm,-,N/A,,Scattered Clouds,0,2013-10-09 16:53:00
1:53 PM,75.0,57.0,53,30.16,10.0,Variable,3.5,-,N/A,,Scattered Clouds,0,2013-10-09 17:53:00
2:53 PM,75.0,57.0,53,30.13,10.0,Calm,Calm,-,N/A,,Scattered Clouds,0,2013-10-09 18:53:00
3:53 PM,77.0,57.0,50,30.12,10.0,WSW,5.8,-,N/A,,Scattered Clouds,240,2013-10-09 19:53:00
4:53 PM,77.0,57.0,50,30.11,10.0,Calm,Calm,-,N/A,,Scattered Clouds,0,2013-10-09 20:53:00
5:53 PM,78.1,57.9,50,30.10,10.0,North,8.1,-,N/A,,Partly Cloudy,10,2013-10-09 21:53:00
6:53 PM,75.0,57.9,55,30.10,10.0,NNE,4.6,-,N/A,,Scattered Clouds,20,2013-10-09 22:53:00
7:53 PM,70.0,60.1,71,30.11,10.0,Calm,Calm,-,N/A,,Scattered Clouds,0,2013-10-09 23:53:00
8:53 PM,66.0,60.1,81,30.12,10.0,Calm,Calm,-,N/A,,Partly Cloudy,0,2013-10-10 00:53:00
9:53 PM,64.9,60.1,84,30.12,10.0,Calm,Calm,-,N/A,,Partly Cloudy,0,2013-10-10 01:53:00
10:53 PM,64.0,59.0,84,30.13,10.0,Calm,Calm,-,N/A,,Mostly Cloudy,0,2013-10-10 02:53:00
11:53 PM,64.9,60.1,84,30.13,10.0,Calm,Calm,-,N/A,,Mostly Cloudy,0,2013-10-10 03:53:00